Theta_e
309 309 309 309 310 310 310 310 310 310 310 310 310 311 311 311 311 311 311 310 311 310 310 310 310 310 310 310 310 310 308 308 310 312 314 314 305 307 310 312 314 313 311 310 311 310 309 312 313 312 312 314 316 317 316 314 314 315 316 317 314 314 314 315 317 315 314 314 315 314 317 319 317 318 317 325 337 340 344 347 347 348 348 345 344 342 340 340
309 309 309 309 309 309 310 310 310 310 310 310 310 310 311 311 310 311 311 311 311 311 311 311 310 311 310 311 310 308 309 309 312 314 317 308 307 309 309 313 314 313 312 312 311 310 311 313 313 313 314 316 315 315 315 314 314 315 317 317 313 316 316 314 315 314 314 314 315 315 316 318 316 317 316 325 337 346 353 351 348 350 348 344 342 341 341 340
308 309 309 309 309 309 309 310 310 310 310 310 310 310 310 310 311 311 311 311 311 311 311 310 310 310 310 310 308 308 309 311 318 325 319 308 308 309 312 314 314 314 314 313 311 309 310 312 312 312 314 316 315 314 314 314 314 314 315 315 315 318 316 315 314 314 315 314 316 316 316 317 315 317 317 321 330 348 358 353 351 351 348 346 343 341 340 340
308 308 309 309 309 309 309 309 310 310 309 310 310 310 310 310 310 311 311 311 311 310 310 310 310 310 310 309 307 308 309 316 326 326 318 313 309 309 314 315 314 315 315 313 311 308 308 309 309 311 312 314 315 313 313 313 313 314 314 314 316 317 315 315 314 314 315 314 316 315 316 317 315 315 318 319 321 335 350 351 352 351 348 347 344 342 341 341
308 308 309 309 309 309 308 309 309 309 309 309 310 310 310 310 310 310 311 311 310 310 310 310 310 310 309 308 306 308 313 321 322 319 318 316 312 311 314 315 316 316 313 310 308 307 308 308 309 312 312 313 312 312 314 313 312 313 314 314 315 314 314 315 314 314 314 315 315 315 316 315 315 316 315 317 314 323 341 348 348 347 346 346 344 343 342 342
308 308 309 308 308 309 309 309 309 309 309 309 309 310 310 310 310 310 310 310 310 310 310 309 309 309 308 306 307 309 318 323 318 316 318 316 314 313 313 315 316 314 311 308 307 308 309 310 311 313 313 313 312 313 314 312 311 313 313 313 314 313 314 314 314 315 314 315 314 315 315 314 316 314 318 330 327 326 340 347 345 345 344 343 344 343 343 344
308 308 308 308 308 308 309 309 309 309 309 309 309 310 310 310 310 310 310 310 310 310 310 309 309 309 307 307 310 312 319 325 317 316 317 314 313 314 314 315 314 311 309 308 307 308 310 312 314 315 313 311 312 313 313 312 311 312 312 312 313 313 314 313 314 313 314 314 314 316 314 315 316 311 328 350 345 342 348 347 345 344 343 344 345 345 343 341
308 308 308 308 307 307 308 309 309 308 308 309 309 309 309 309 310 309 310 310 309 310 310 309 309 308 307 309 315 318 322 325 319 318 317 313 311 313 315 314 312 310 308 308 307 309 311 314 315 314 312 311 313 312 311 311 310 311 311 312 313 312 313 313 313 313 315 314 313 316 313 315 316 313 336 353 348 348 350 347 346 345 345 346 345 343 339 336
308 308 308 308 307 308 308 309 308 307 307 308 309 309 308 308 309 309 309 309 309 309 309 309 308 307 307 310 316 323 325 321 319 319 314 312 311 312 314 312 311 309 307 307 308 311 314 316 316 314 312 311 311 310 311 310 311 313 312 312 312 312 313 313 314 314 314 314 313 315 314 316 316 313 335 348 348 349 348 347 348 347 347 346 342 339 337 335
308 308 308 307 307 308 308 307 306 307 308 308 309 309 307 308 309 308 308 309 309 308 308 308 307 307 309 312 317 323 322 317 318 316 311 312 309 310 312 310 310 307 306 308 309 312 315 316 316 314 311 310 310 311 311 310 313 314 312 313 312 313 313 313 314 315 314 314 314 314 313 318 314 315 336 346 347 348 348 349 348 347 347 342 338 339 337 334
307 307 308 307 307 308 307 306 307 308 308 307 307 307 306 308 308 308 308 308 309 308 308 307 306 309 310 313 320 323 319 316 316 313 311 311 308 308 309 309 308 306 307 310 310 312 314 314 315 315 312 311 313 311 312 311 313 314 313 312 313 314 314 314 315 314 316 314 314 315 312 317 312 316 340 347 346 347 348 349 347 346 345 340 338 337 335 331
307 307 308 307 307 308 306 306 308 307 306 305 305 306 305 306 306 306 307 309 309 307 308 307 307 310 311 316 322 320 315 316 314 312 311 310 307 307 307 308 307 306 308 311 312 313 313 314 314 313 313 312 313 312 313 313 312 313 314 312 314 314 314 314 315 314 315 313 316 315 311 318 313 315 338 345 344 347 348 348 346 343 342 339 337 335 334 332
307 307 307 306 307 307 305 306 306 304 303 303 304 305 304 305 304 304 306 310 309 307 306 306 308 309 313 322 323 314 313 316 313 312 311 310 309 308 308 310 309 308 309 311 313 313 313 314 312 312 313 313 313 312 313 313 313 314 313 313 313 314 314 313 315 314 314 313 316 314 311 316 314 321 339 344 343 346 347 347 344 342 340 338 337 334 333 333
307 306 305 304 305 305 305 304 303 302 302 303 304 304 304 304 303 304 307 311 309 306 306 306 308 311 317 325 318 312 316 317 315 312 310 310 311 310 310 311 311 311 311 311 312 313 314 314 312 312 312 312 312 312 313 313 313 313 314 316 314 311 313 314 313 314 313 314 315 313 312 313 315 328 340 339 340 344 345 347 343 341 339 337 337 334 332 333
306 306 303 303 303 303 303 301 301 301 301 302 302 302 303 303 305 307 309 313 310 307 308 307 308 312 320 325 316 314 317 318 317 313 311 312 311 311 312 312 312 313 313 312 313 314 314 313 312 313 314 314 313 312 313 314 314 314 313 317 318 311 311 313 313 315 313 313 314 312 313 311 316 331 339 335 336 341 343 345 343 340 339 336 336 335 334 335
304 305 303 302 302 300 300 300 300 301 301 302 302 302 303 305 310 312 313 313 310 308 309 311 311 313 321 324 318 317 317 316 316 312 312 313 311 312 312 312 313 312 313 314 314 314 313 313 312 313 313 312 313 314 315 316 318 320 314 313 318 314 311 313 312 314 313 312 314 312 314 314 317 327 334 332 334 339 343 344 341 340 338 337 336 335 336 335
302 304 303 301 301 300 300 300 300 301 301 301 302 303 304 308 314 315 314 311 308 308 309 312 312 313 320 320 317 319 317 315 314 313 313 313 313 313 312 312 312 312 313 312 312 312 312 312 313 316 319 318 318 317 316 316 318 324 322 316 318 316 312 313 313 314 313 311 313 312 315 317 318 323 330 331 331 336 340 342 341 340 337 337 336 335 336 336
300 302 304 302 301 301 300 300 301 300 301 301 302 303 306 311 315 316 314 310 310 311 311 312 312 315 321 318 318 320 316 313 313 313 312 312 313 313 313 312 311 312 311 311 313 312 311 315 317 318 323 322 319 317 316 317 318 321 324 321 321 320 315 313 314 315 313 312 314 313 313 317 319 322 327 329 330 335 339 340 340 339 338 336 336 336 336 336
300 301 303 303 302 301 301 301 301 301 301 302 303 306 311 315 317 318 313 311 316 315 313 316 316 319 321 317 317 318 316 315 313 313 312 312 313 313 312 310 311 312 311 313 315 314 313 316 319 317 317 319 319 317 316 316 316 316 320 321 319 318 316 315 314 315 313 312 314 314 313 316 321 321 323 328 331 336 339 339 339 338 337 336 335 336 335 336
300 300 301 304 303 302 303 303 303 303 303 303 304 309 317 323 324 322 318 317 320 317 312 317 318 317 315 313 314 316 317 316 313 312 312 313 312 311 311 310 311 311 313 316 318 320 316 313 317 316 318 322 323 322 319 318 319 320 321 320 316 315 315 315 317 316 317 317 315 319 320 319 323 321 321 330 335 338 338 338 339 337 336 335 335 335 334 335
300 300 301 303 304 304 303 304 304 304 305 304 306 313 320 323 323 322 323 323 320 317 315 316 316 315 314 312 313 314 315 314 313 313 312 312 311 311 311 311 311 313 317 318 318 321 316 313 317 320 322 324 325 328 326 322 324 324 321 317 315 316 316 316 321 320 324 327 318 321 325 320 325 324 323 333 338 338 338 338 338 336 335 333 334 334 333 334
299 300 300 302 304 305 304 304 305 305 307 306 307 313 317 316 316 316 318 320 318 318 319 317 316 315 315 315 315 315 314 314 314 313 313 312 311 312 312 312 311 315 318 317 315 316 315 316 318 320 321 321 324 329 329 327 325 322 319 318 316 317 317 321 329 327 327 330 320 321 325 322 330 329 324 332 337 336 336 337 336 335 334 333 333 333 333 333
299 300 300 301 303 304 304 305 305 306 308 308 307 312 315 313 314 314 315 318 318 318 320 319 318 318 318 318 318 317 316 315 314 314 313 311 312 313 313 312 312 314 315 315 316 315 316 320 320 318 318 320 323 325 331 334 329 325 319 314 316 317 316 318 330 334 330 327 321 323 329 328 333 331 323 327 332 334 334 334 335 334 334 334 333 333 332 333
299 299 300 301 301 304 305 305 306 309 310 310 310 313 315 315 317 316 316 320 320 317 318 318 318 318 318 318 318 317 316 315 315 314 312 312 313 312 312 312 312 312 312 315 318 315 315 318 321 321 321 323 322 321 333 333 326 335 330 316 317 319 316 316 325 336 336 336 333 329 329 332 333 327 322 323 327 332 332 332 333 332 333 333 332 332 331 332
299 299 300 300 301 304 305 304 308 311 310 310 313 314 314 316 317 316 318 324 326 323 318 317 317 317 317 318 317 316 316 314 315 314 312 313 313 312 312 312 311 313 312 311 315 316 315 316 318 323 324 323 320 319 331 331 322 331 337 329 323 320 321 323 329 337 333 331 334 327 323 336 341 328 326 325 326 331 332 332 333 331 333 333 333 333 332 333
299 300 300 300 301 302 305 310 313 310 308 310 313 314 314 316 317 318 323 329 330 328 321 317 318 318 317 317 316 314 315 315 315 313 313 312 312 313 312 312 313 313 313 314 315 316 317 317 319 324 328 325 322 319 325 333 323 318 331 339 331 327 328 327 329 329 325 324 329 328 324 332 336 329 331 328 325 327 325 328 333 330 332 332 332 333 332 334
299 299 299 300 300 300 306 313 311 307 308 311 313 315 316 317 315 319 328 329 330 329 321 316 315 316 316 316 315 315 318 318 315 313 314 314 313 313 313 315 314 311 315 318 318 320 321 320 319 325 329 324 321 320 324 331 322 319 335 338 326 326 327 329 327 320 322 325 330 337 329 322 325 328 330 325 319 324 322 323 328 327 329 332 332 332 331 333
299 299 300 300 300 300 305 308 306 307 312 315 317 318 318 316 314 322 328 326 327 324 318 313 313 314 314 314 314 315 318 318 316 315 314 313 313 313 313 314 313 314 318 315 316 325 326 321 320 324 324 320 321 327 329 326 319 324 338 329 321 323 324 330 328 321 327 322 323 340 331 317 329 336 332 325 321 325 325 322 324 325 328 332 332 331 331 332
299 299 300 300 299 302 308 310 308 311 315 317 320 318 314 315 320 330 328 324 324 320 315 312 313 313 313 314 313 314 315 315 316 317 314 313 314 313 313 313 313 314 315 315 319 325 324 321 324 324 322 323 328 330 327 323 321 328 332 324 323 326 327 329 324 324 334 325 324 341 328 316 332 341 336 329 321 323 326 323 322 326 329 331 331 330 331 331
299 299 300 300 300 304 309 308 309 315 314 315 320 315 312 321 333 333 326 323 322 320 314 312 312 314 315 314 313 314 315 315 316 315 312 313 314 313 313 314 314 316 321 326 322 319 320 320 322 321 322 327 327 324 322 319 320 324 326 325 326 329 334 337 332 327 327 326 331 336 326 320 330 337 338 329 319 320 328 326 323 327 331 331 331 331 330 330
299 299 300 300 300 303 305 306 310 315 312 311 317 318 318 329 333 330 327 324 323 323 317 313 313 314 315 315 315 316 315 315 316 314 314 315 313 313 314 315 317 320 330 333 322 321 325 318 317 320 321 321 317 316 317 316 319 321 323 324 325 329 335 341 341 329 320 329 337 332 324 324 327 331 333 329 323 324 327 326 324 328 331 330 331 330 330 330
299 300 300 300 301 301 302 306 309 311 309 309 318 326 331 329 327 328 329 325 326 328 318 314 317 314 315 315 315 316 315 316 316 313 314 315 316 316 314 318 322 320 326 328 321 326 333 324 319 317 316 316 314 315 316 318 322 321 322 326 323 323 328 335 336 328 325 332 334 331 325 323 329 333 328 325 324 323 322 321 322 326 327 327 329 330 330 331
300 300 300 301 302 301 302 303 304 305 306 310 322 333 332 327 328 330 327 321 324 324 315 316 319 315 315 315 314 315 316 316 316 315 316 315 317 317 313 318 324 319 323 326 321 325 331 331 326 318 318 318 314 316 315 318 320 315 317 323 323 323 325 330 330 325 328 332 331 332 328 324 329 331 328 325 321 321 320 320 322 325 325 327 328 329 330 331
300 300 301 302 301 302 303 302 303 303 304 315 330 333 325 322 328 329 324 321 320 317 315 317 317 316 316 315 315 315 315 317 316 314 316 316 316 319 315 314 317 319 323 322 319 322 324 330 331 321 320 318 314 317 319 320 320 317 318 318 321 327 328 329 330 328 329 330 328 327 326 326 327 328 331 326 319 321 321 321 325 327 327 328 328 329 331 330
301 301 302 303 301 302 302 303 306 304 307 323 333 329 323 325 328 325 323 322 317 314 315 314 314 318 318 316 316 314 316 325 324 316 316 317 318 321 320 315 315 319 321 319 320 319 315 323 330 321 317 316 313 314 316 318 318 319 318 314 315 325 331 327 327 334 336 328 325 324 326 330 328 327 331 324 321 325 325 325 328 328 328 329 329 330 330 330
301 300 302 303 303 303 301 304 310 305 313 329 329 324 326 328 326 321 320 318 314 313 313 312 314 318 318 318 317 313 315 324 325 319 318 317 316 318 318 316 316 316 319 323 326 320 315 320 325 317 313 316 314 313 313 313 319 321 314 314 317 319 326 326 322 330 332 325 326 325 323 327 326 325 326 321 322 326 326 328 328 329 330 331 331 331 329 330
301 303 307 308 305 303 301 305 310 309 319 329 326 327 328 324 320 318 316 315 313 313 311 312 317 318 318 319 319 315 313 318 321 318 320 320 319 320 316 314 318 314 315 321 321 321 322 323 322 316 312 315 312 312 316 314 318 320 312 317 322 315 323 332 326 326 322 322 330 326 321 326 325 327 328 322 322 323 324 327 328 329 331 331 332 330 328 329
304 308 312 311 305 303 304 309 312 314 324 327 326 329 326 318 316 315 313 312 311 311 310 312 315 317 318 319 322 319 314 319 323 318 318 319 320 322 317 313 316 313 314 320 319 321 324 321 322 320 312 313 315 313 318 319 315 316 314 317 318 314 322 327 323 324 321 319 324 322 322 325 322 325 327 321 321 324 325 327 327 329 329 328 328 327 327 328
306 313 320 315 308 305 305 311 315 319 326 326 325 327 322 316 315 313 311 311 310 311 311 312 313 315 318 318 320 318 313 317 320 315 315 318 321 324 319 315 317 314 315 320 320 323 324 319 322 324 313 313 322 319 317 318 315 316 319 318 319 323 325 321 319 325 323 320 320 322 324 325 326 328 325 320 320 322 325 327 327 328 327 327 327 326 327 328
308 316 320 314 311 309 307 313 318 320 324 326 325 323 317 315 314 312 312 311 310 311 313 314 313 314 316 314 314 315 312 313 315 314 317 320 322 322 319 318 316 314 315 317 319 324 323 317 321 327 320 316 320 317 312 313 313 317 322 320 319 322 321 320 320 322 323 323 324 324 323 327 337 336 326 323 323 323 326 327 326 326 326 326 326 327 328 328
309 315 317 311 311 312 313 317 319 320 322 322 321 318 315 315 314 312 311 310 309 310 312 314 313 313 314 312 313 314 313 314 314 314 317 318 318 318 316 315 314 313 318 320 321 323 322 320 323 326 323 319 318 314 310 311 311 315 322 322 322 324 322 320 320 323 326 326 327 328 326 331 341 334 324 324 325 324 325 325 326 326 325 325 325 326 328 329
312 318 317 311 310 313 316 320 320 319 319 319 318 316 314 315 313 311 311 309 308 309 311 314 314 314 313 312 314 313 312 315 314 314 317 317 316 315 312 312 311 313 319 319 316 319 327 331 326 320 317 314 312 310 309 310 311 314 318 320 323 327 330 329 328 329 325 320 326 331 327 332 338 331 323 323 324 323 323 323 324 323 323 323 323 324 326 327
313 314 314 309 311 314 317 320 319 316 317 318 315 312 311 312 311 310 310 310 310 310 312 313 312 313 312 311 312 311 312 315 313 312 315 315 316 315 312 314 314 313 319 322 317 319 328 327 319 319 326 322 316 314 313 311 314 316 317 319 318 319 329 334 333 335 326 316 322 325 320 328 335 327 322 322 323 323 322 321 322 322 322 322 321 323 324 325
311 310 313 310 310 314 318 321 322 321 321 318 311 311 311 310 310 310 310 310 310 312 313 312 311 312 311 310 312 312 312 315 314 312 313 314 314 314 314 317 318 316 319 323 321 318 321 321 322 326 329 326 323 323 319 314 314 315 315 317 316 315 326 327 323 331 327 315 323 328 321 325 329 321 320 322 322 323 322 320 321 321 322 322 322 323 322 323
311 313 316 311 308 313 319 321 321 321 322 316 312 313 311 309 311 311 310 310 310 311 313 310 310 311 311 312 314 312 311 313 315 314 314 314 313 312 314 316 315 315 320 326 328 325 321 325 335 337 326 320 324 324 317 311 313 316 314 314 316 317 321 321 321 330 326 315 323 331 325 326 326 319 319 322 323 323 322 321 321 321 322 321 322 323 322 323
314 315 315 312 309 312 315 315 313 313 315 313 312 314 312 311 312 311 310 312 310 310 310 309 310 313 314 315 315 313 312 313 315 317 317 316 314 312 312 315 316 317 323 327 329 329 324 324 334 340 332 325 325 322 314 309 311 314 313 312 316 318 320 322 324 328 327 320 322 327 326 323 319 314 317 321 321 322 322 322 322 321 321 321 321 321 321 321
313 313 311 310 310 312 312 311 310 310 311 312 311 313 313 312 312 312 311 311 310 310 311 309 309 314 316 316 316 315 315 314 315 318 316 316 316 313 312 314 317 321 322 320 325 330 327 319 319 327 325 319 316 313 309 309 309 309 310 312 317 320 321 321 317 317 322 321 319 321 324 321 314 313 317 318 319 322 321 321 321 320 321 320 320 319 318 319
309 311 309 308 311 313 312 311 311 310 310 313 312 310 311 312 311 310 310 310 309 310 313 311 308 309 310 312 314 314 315 317 317 316 314 314 317 319 317 313 315 319 319 317 322 329 327 319 313 314 315 313 313 311 310 310 309 309 312 314 316 319 319 316 313 314 319 322 320 319 320 318 313 313 314 314 317 319 319 318 319 319 320 319 318 318 318 317
305 307 308 307 310 313 312 311 312 310 309 312 313 309 308 310 311 309 308 311 310 308 311 312 308 306 306 308 311 311 312 315 315 313 312 312 315 318 318 316 314 316 317 317 318 321 323 319 314 316 318 315 313 312 310 312 312 312 314 314 315 317 317 315 314 315 319 320 319 319 318 315 312 311 312 312 311 313 313 314 314 314 316 317 317 317 317 316
302 304 305 306 308 312 312 310 310 308 306 308 311 309 307 308 310 308 306 309 311 309 310 310 307 305 304 305 307 308 308 309 309 309 309 310 312 314 313 314 313 312 316 317 315 318 322 315 315 325 325 317 315 314 311 313 313 314 315 316 318 318 316 316 316 318 321 316 312 316 317 313 312 312 311 309 308 310 311 311 311 311 312 315 316 317 318 318
299 300 302 305 308 309 308 306 306 306 305 306 308 307 307 306 308 309 307 307 308 309 310 310 307 305 305 305 306 306 306 306 307 308 307 307 309 310 310 311 310 309 313 315 314 320 325 316 316 326 324 316 315 315 314 316 317 319 318 316 317 317 313 313 314 315 318 315 313 317 317 313 313 311 309 308 308 309 309 309 310 310 310 311 314 316 318 320
299 300 301 305 307 305 304 303 303 305 306 306 305 305 306 306 305 310 311 308 306 307 308 308 307 306 305 305 305 305 305 306 306 305 305 305 306 306 307 307 307 306 309 313 314 319 325 321 319 322 322 317 314 315 319 320 319 320 318 312 312 313 312 311 311 310 312 314 316 316 312 309 311 309 307 307 307 307 308 308 309 309 309 310 311 312 314 317
Wind_Speed
12 12 12 12 11 11 11 11 11 11 11 11 11 11 11 12 12 11 11 11 11 11 11 11 11 12 12 13 13 13 15 16 16 10 9 12 13 10 10 7 3 4 7 9 6 3 3 3 6 7 2 2 2 2 3 4 2 2 2 3 4 5 5 4 2 1 2 7 9 10 6 3 2 4 2 5 7 8 7 6 5 7 8 10 14 25 32 30
12 12 12 12 12 11 11 11 11 11 11 11 11 11 11 11 11 11 11 11 10 11 11 11 11 11 11 12 12 12 15 16 14 13 16 13 8 9 13 9 6 6 6 7 7 5 3 1 3 2 2 0 2 2 2 2 2 3 3 3 5 5 5 4 1 1 4 7 8 8 5 3 2 3 2 5 4 6 10 5 5 10 11 13 17 23 24 25
12 12 12 12 12 12 12 11 11 11 11 11 11 11 11 11 11 11 11 10 10 10 10 11 10 10 11 11 11 11 13 12 7 10 10 9 12 13 15 12 10 7 8 7 7 7 7 3 5 3 1 2 3 2 2 2 2 2 3 3 5 5 6 6 3 4 6 7 6 5 5 5 4 4 2 4 5 4 8 6 6 9 10 13 13 15 18 19
13 12 12 12 12 12 12 11 11 11 11 11 11 11 11 11 11 10 10 10 10 10 10 10 10 10 10 10 9 10 10 5 3 6 2 4 11 15 17 15 13 12 11 9 7 7 7 5 5 3 1 3 3 2 3 4 3 2 4 5 6 5 7 8 6 6 7 7 6 4 3 6 6 3 1 4 4 1 5 8 11 13 14 15 13 12 14 14
13 12 12 12 12 12 12 11 11 11 11 11 11 11 11 10 10 11 10 10 10 9 10 10 9 9 9 9 8 8 6 2 2 5 3 4 6 12 16 15 13 14 13 10 7 6 6 4 1 1 2 4 4 1 3 6 3 2 4 6 8 7 7 8 7 7 6 6 7 4 2 2 5 4 3 0 2 4 6 7 13 18 17 17 15 13 12 11
13 13 12 12 12 12 12 12 11 11 11 11 11 10 10 10 10 10 10 10 9 9 10 8 8 8 9 9 5 4 1 1 5 5 3 4 5 9 13 14 13 13 14 11 6 3 3 2 2 2 2 3 4 5 6 5 4 3 6 6 9 9 8 8 6 5 4 4 6 3 1 1 3 5 4 2 3 6 4 7 12 14 15 18 16 13 11 9
13 13 12 12 12 12 12 12 11 11 11 11 10 10 10 10 10 10 10 9 9 9 9 8 8 7 8 6 2 1 0 4 9 5 5 5 7 9 12 14 15 15 14 10 6 4 2 2 2 3 3 4 4 6 6 3 5 5 6 7 10 10 10 11 8 5 5 6 7 3 1 1 1 2 3 3 1 3 8 10 13 13 13 15 13 11 9 9
13 13 12 13 13 12 12 12 11 11 12 11 11 10 10 10 9 10 9 9 9 8 8 8 7 7 7 4 1 1 2 7 8 4 7 7 8 10 13 14 16 16 14 12 10 6 2 2 4 3 2 5 4 4 4 2 2 6 7 9 9 8 10 12 8 6 7 6 7 5 3 5 6 3 2 2 3 9 12 12 13 14 13 12 12 12 11 10
14 13 12 12 12 12 11 12 11 11 12 12 11 11 10 10 9 10 9 9 8 7 7 7 6 5 5 3 1 2 4 5 3 5 8 9 10 12 14 14 16 16 14 13 10 5 3 3 5 4 3 5 3 5 4 1 4 6 8 9 8 9 10 10 8 7 6 5 5 6 5 6 7 3 3 1 6 11 12 12 13 14 14 11 10 11 10 10
14 13 12 13 12 11 11 12 11 11 12 12 11 11 10 10 9 10 9 8 7 7 6 5 5 4 3 3 1 1 4 2 3 6 8 9 10 13 15 14 16 17 13 10 10 9 6 6 5 3 4 4 2 5 4 5 4 5 6 7 9 11 9 7 7 7 4 4 5 5 6 7 5 3 2 3 6 12 13 12 11 12 12 10 10 9 10 9
14 13 13 12 11 11 11 11 11 11 12 12 12 11 10 10 10 9 8 8 7 6 5 4 4 2 3 2 3 3 4 3 5 7 6 9 11 13 16 14 15 18 15 8 10 13 10 11 7 1 4 4 2 5 4 5 3 6 6 6 8 6 5 4 4 5 3 3 5 5 6 5 2 4 8 6 6 12 15 13 11 11 9 9 11 9 8 7
14 14 13 12 11 11 11 11 10 10 11 12 12 12 10 10 10 9 8 7 6 4 2 3 2 1 3 1 5 8 5 3 4 6 6 7 8 9 13 14 14 18 15 7 8 14 15 16 9 3 6 2 3 4 4 5 5 8 5 3 8 5 5 6 4 4 2 3 3 1 3 5 3 4 12 11 9 11 14 13 11 10 8 9 9 8 6 6
15 14 13 12 11 10 10 10 10 10 11 12 12 12 11 10 10 9 7 6 5 3 2 1 1 1 2 2 8 10 7 4 4 8 7 6 5 5 11 11 12 14 15 12 12 16 18 17 10 9 7 1 2 3 4 6 4 6 4 2 4 6 6 7 4 5 5 3 4 4 3 7 5 6 14 13 12 12 13 11 10 9 8 9 7 8 6 5
16 14 12 11 10 9 9 9 9 10 11 12 12 12 11 9 9 8 7 5 3 2 2 1 1 1 1 5 11 11 11 10 8 13 11 9 5 5 10 12 12 14 16 18 18 19 20 18 8 4 3 2 2 4 5 6 3 3 4 3 3 2 6 7 3 4 6 3 7 5 4 8 4 9 15 12 13 14 12 11 11 9 8 8 8 9 7 6
18 15 12 11 9 8 8 8 9 10 11 12 12 12 10 8 8 7 6 4 2 2 3 1 3 2 1 7 12 9 7 4 12 19 15 11 7 7 11 14 16 17 19 20 20 19 19 15 6 1 2 2 1 4 5 5 3 2 2 4 3 1 6 8 4 6 7 3 7 8 5 7 4 10 13 11 13 14 14 11 10 11 10 9 8 9 9 7
21 17 13 11 9 8 7 8 9 9 11 12 11 11 9 8 7 5 5 3 2 4 3 1 4 3 1 5 8 7 5 5 13 20 17 11 9 11 13 14 15 16 18 19 16 15 13 7 2 2 1 3 3 3 4 5 5 4 1 3 4 3 5 7 6 7 11 5 4 9 5 5 3 10 14 14 14 13 13 11 11 11 10 10 8 8 9 7
24 19 14 12 9 7 7 8 8 9 10 11 11 10 8 8 5 3 3 1 2 4 5 1 1 2 3 6 6 5 5 7 12 18 18 14 13 14 11 8 9 11 11 11 11 10 6 2 1 1 2 2 2 4 4 4 3 4 2 1 4 5 4 5 8 7 10 9 6 9 8 5 3 8 13 13 12 11 12 12 11 11 9 9 8 8 9 9
25 22 16 13 11 9 8 8 8 9 10 10 10 9 8 7 5 2 1 4 5 2 3 3 2 0 3 5 5 3 3 8 13 14 16 16 15 16 12 7 5 4 2 4 6 4 2 2 1 1 3 4 2 5 2 3 3 3 2 1 3 4 4 7 9 6 7 10 9 9 9 9 5 3 11 13 13 13 13 12 11 10 10 9 7 8 8 9
25 25 20 14 11 10 9 8 9 9 10 9 8 9 7 4 2 1 4 4 4 1 2 3 3 2 2 5 5 5 5 9 11 11 15 17 15 15 13 8 4 3 2 1 4 3 1 1 2 1 3 3 2 4 6 8 7 7 5 4 3 4 5 7 9 5 8 8 7 8 7 5 5 2 7 10 9 10 10 9 8 8 8 8 8 7 7 9
24 25 23 17 12 11 10 9 10 10 10 9 7 6 4 1 2 1 2 3 4 5 6 5 7 5 7 7 6 7 7 8 8 9 16 18 13 8 6 6 3 3 3 3 3 3 3 2 2 4 6 7 8 7 8 8 8 6 1 2 2 2 5 8 8 5 5 7 1 4 6 2 2 1 4 5 6 7 9 9 8 8 8 9 10 10 9 9
24 24 24 20 15 12 11 11 11 10 11 10 7 4 1 1 1 2 2 4 8 9 10 9 10 11 12 11 12 10 6 5 7 8 17 18 10 5 3 4 3 2 3 4 3 2 3 3 7 9 10 10 9 7 7 6 3 1 2 2 3 2 4 7 4 6 4 7 1 1 6 3 4 2 5 10 10 9 11 12 10 11 11 9 11 12 10 8
24 23 23 23 18 13 12 12 12 13 13 11 6 1 4 4 3 6 4 4 8 10 13 12 10 12 15 17 22 16 6 5 6 5 12 13 7 5 3 2 5 4 4 2 1 2 1 4 11 13 9 6 6 4 3 2 0 2 2 2 3 2 3 7 6 7 6 5 1 3 2 3 7 2 6 12 11 10 12 14 14 13 11 9 10 11 10 8
24 22 23 23 20 15 12 12 14 14 12 10 5 5 7 12 11 14 7 3 8 7 10 10 9 9 11 13 18 12 5 5 6 6 10 11 5 5 3 2 5 4 2 2 4 3 2 6 11 11 6 4 5 4 2 3 2 1 2 1 2 2 0 3 7 8 6 2 1 1 3 3 5 5 4 10 9 8 9 11 12 12 12 12 12 13 13 13
23 23 22 21 21 17 13 14 12 10 10 11 9 9 16 17 12 11 5 1 7 6 6 11 9 6 10 10 9 7 6 6 6 6 11 11 4 4 4 4 4 3 4 5 6 5 6 9 6 4 6 8 6 4 3 4 3 3 3 3 3 2 2 4 5 5 6 5 1 4 6 5 3 5 2 4 5 8 8 8 10 10 10 11 11 12 13 14
23 23 22 21 21 17 14 12 6 6 12 12 12 14 19 16 8 4 1 1 4 5 4 7 6 6 13 10 7 7 5 6 7 7 11 13 8 4 3 3 3 4 6 4 4 4 9 11 4 2 5 9 7 5 4 5 1 4 4 6 5 3 4 4 4 4 5 6 3 5 4 5 4 3 3 1 2 8 8 9 12 9 6 7 9 10 9 10
23 23 22 21 21 18 13 6 4 9 12 10 10 14 15 14 10 1 2 3 3 5 3 2 4 6 10 6 6 4 2 5 9 11 14 15 13 7 2 2 2 4 5 3 2 2 7 9 6 4 3 6 6 4 4 6 5 2 5 7 6 5 3 2 4 4 3 1 4 4 5 4 6 4 6 1 6 9 7 7 8 7 7 8 9 9 8 8
23 22 22 21 20 20 10 4 9 11 6 7 12 13 12 15 12 1 3 5 3 4 2 1 1 4 6 5 7 6 3 5 5 9 13 17 13 6 4 4 1 3 3 1 1 2 4 4 5 5 4 5 4 2 5 5 7 3 6 4 4 3 5 5 5 3 1 2 4 5 5 2 4 5 6 1 5 6 8 9 7 6 8 9 9 9 11 11
23 22 21 20 19 18 10 7 11 8 4 11 15 11 12 16 9 1 5 2 3 2 2 1 1 4 3 3 7 7 6 3 2 4 11 20 14 5 5 7 4 4 3 2 3 6 3 4 7 7 4 3 3 5 6 5 4 6 7 3 3 3 5 6 6 3 1 2 4 6 2 2 4 6 4 3 3 2 7 9 9 10 11 11 12 12 12 11
23 22 21 20 19 15 9 7 8 5 7 15 16 13 13 12 5 3 4 0 3 2 1 1 1 2 2 1 5 7 6 2 1 4 6 15 11 4 5 7 5 4 3 3 4 6 4 7 8 7 5 4 6 6 6 7 3 6 3 1 2 2 3 4 5 3 4 4 2 6 3 1 4 6 5 4 4 4 4 2 7 12 12 12 12 11 10 8
23 22 20 20 18 11 7 10 12 5 9 16 16 14 10 6 4 4 1 3 2 2 1 1 0 1 2 3 3 7 5 1 1 1 3 7 6 2 1 3 3 2 2 1 2 5 6 5 4 4 5 6 5 4 4 6 6 2 3 4 5 5 4 4 3 4 4 2 5 6 1 3 1 5 4 1 3 5 3 1 4 9 10 10 10 8 9 9
23 21 20 20 18 10 6 9 9 3 8 17 16 10 5 4 4 4 3 4 2 3 1 1 2 1 4 5 4 5 5 3 1 4 2 4 5 2 1 2 2 2 3 5 2 5 6 2 3 2 4 5 4 1 3 1 2 4 4 4 3 4 5 4 5 5 3 3 6 6 0 6 2 4 4 4 7 7 2 5 6 9 8 7 7 7 8 9
24 21 19 19 18 14 12 10 8 6 12 16 13 5 4 4 1 2 3 3 2 2 1 1 3 1 3 5 4 5 4 3 3 6 5 3 4 5 4 4 3 2 3 2 2 5 5 2 4 4 2 4 5 1 5 6 5 5 4 5 4 2 4 3 3 2 1 4 5 4 2 3 2 5 5 6 8 7 2 3 7 11 10 8 7 7 6 6
24 22 20 18 16 18 20 18 15 13 13 11 7 4 5 4 1 4 3 3 2 2 1 1 3 4 3 3 3 5 5 4 4 6 6 4 4 5 5 5 7 5 1 4 1 3 3 5 5 4 4 1 6 2 2 3 2 3 4 3 4 2 3 1 3 1 1 4 5 4 1 0 3 3 5 6 7 5 3 5 8 10 10 9 8 7 6 6
25 22 19 17 16 20 21 18 16 12 8 6 4 5 5 2 3 4 3 3 4 3 4 2 4 6 4 2 4 6 5 4 3 5 6 4 3 3 3 4 5 6 3 2 1 1 1 4 3 1 2 1 4 5 6 4 2 3 4 5 4 4 4 3 3 2 2 3 4 4 1 2 1 3 5 4 8 7 6 7 9 10 9 9 8 7 7 6
24 20 19 19 19 21 20 15 15 10 2 3 5 4 3 4 3 2 3 3 2 3 6 6 4 2 3 5 6 6 5 2 1 1 3 4 4 5 3 4 5 4 4 2 3 2 3 3 6 3 2 3 3 4 5 6 2 3 2 5 2 5 5 3 3 5 4 1 2 2 1 3 4 3 3 6 9 8 8 9 11 11 9 9 9 8 6 5
24 21 17 15 17 20 17 13 12 10 6 5 4 2 3 4 3 2 3 2 2 3 7 10 3 3 1 4 5 4 2 4 1 0 1 1 2 3 3 5 6 7 7 4 3 1 2 3 6 4 2 2 5 5 4 5 2 2 2 2 3 4 7 4 2 1 4 3 2 1 1 4 2 2 5 8 8 6 7 10 11 10 10 11 9 7 6 5
26 19 12 12 18 19 14 11 9 12 8 5 4 4 4 3 4 4 3 3 4 5 4 5 3 2 1 1 4 7 3 1 2 3 2 3 2 3 4 3 3 7 9 6 2 3 4 2 6 2 3 6 4 3 1 2 5 3 1 3 1 2 4 4 2 2 4 2 4 1 2 2 2 1 4 7 7 5 4 6 11 12 12 12 8 5 5 5
21 13 9 15 18 15 13 9 12 14 6 4 3 4 3 3 4 4 5 6 6 5 3 2 3 2 3 2 3 5 3 3 2 2 2 2 3 3 3 4 2 2 5 6 2 1 4 0 6 3 1 6 4 4 3 4 2 4 4 2 3 3 0 1 2 1 1 2 3 3 0 1 1 3 3 5 5 5 5 4 7 9 10 11 10 7 6 6
10 6 5 7 8 6 15 14 13 9 5 2 3 3 3 4 6 6 7 7 5 3 3 3 3 2 2 4 4 4 3 3 2 2 2 1 2 2 1 3 2 2 4 6 4 1 3 3 4 5 2 3 5 4 3 5 5 3 2 3 2 3 3 1 1 3 3 2 2 1 3 1 3 4 2 3 2 5 7 5 6 6 6 8 8 7 6 6
3 3 4 6 15 1 19 16 9 5 3 3 4 2 3 4 6 7 8 7 4 2 4 4 2 1 1 2 3 3 2 3 3 2 1 1 1 2 2 3 3 2 4 7 4 1 3 3 2 6 5 3 2 1 3 2 4 3 3 1 1 2 2 1 1 1 3 4 2 1 1 3 5 3 4 5 5 7 8 7 6 5 5 5 7 7 6 6
2 3 4 10 16 9 22 12 3 3 3 3 2 3 4 4 5 9 10 8 5 4 5 4 3 3 3 2 2 2 1 2 3 2 3 2 2 1 3 3 2 2 2 7 4 1 2 2 2 2 4 2 2 2 2 1 3 2 2 3 3 3 3 3 1 2 1 4 3 4 1 5 5 1 3 5 6 7 9 10 8 6 6 5 5 6 6 6
2 1 7 14 16 10 16 5 1 2 2 3 3 3 4 4 6 8 9 8 6 5 6 5 3 3 2 2 2 1 1 1 2 2 3 3 4 4 2 2 3 2 3 3 2 1 3 4 3 1 2 3 5 3 3 2 1 2 1 0 2 3 4 5 3 3 1 2 2 4 2 5 5 1 3 5 6 5 6 10 9 6 6 5 5 6 6 6
1 3 10 17 19 3 6 3 2 1 1 4 3 4 5 4 6 7 7 6 5 4 3 2 1 1 2 2 1 3 3 1 2 1 4 3 1 4 3 3 5 5 4 2 2 1 2 4 3 2 4 4 5 2 4 5 6 5 3 3 4 2 2 5 5 4 2 1 1 3 1 4 5 2 1 3 5 6 6 7 9 7 5 6 7 7 7 6
2 4 7 15 21 7 4 1 2 2 3 3 3 4 4 4 7 7 6 5 5 3 2 1 3 2 2 3 3 3 3 2 3 5 4 4 1 4 4 4 5 4 2 3 3 1 1 1 3 3 4 5 6 5 5 6 5 3 3 4 5 4 4 3 1 3 3 2 4 5 2 4 4 3 4 7 8 8 6 5 8 8 6 6 6 6 6 6
3 2 4 11 18 9 3 2 3 2 3 3 3 4 4 3 5 6 4 2 4 3 2 3 5 4 4 4 4 4 5 3 2 5 5 2 2 1 1 4 6 5 2 3 4 4 3 2 3 5 3 1 1 2 2 3 3 2 3 5 5 6 6 3 2 4 2 2 3 5 4 4 4 5 6 8 9 8 6 5 6 6 7 7 6 6 6 6
2 3 3 6 9 7 0 1 3 3 2 1 2 4 2 2 4 4 2 2 4 5 6 6 6 6 6 5 5 6 7 5 3 4 5 5 4 4 4 6 8 6 6 7 6 4 4 2 3 6 6 5 5 4 3 1 2 3 5 7 5 4 4 5 4 2 2 2 2 2 5 3 2 3 3 6 8 9 7 7 7 6 6 7 6 6 5 6
2 2 4 3 4 4 4 4 6 5 4 1 1 3 4 3 4 5 5 4 5 5 5 8 9 6 4 4 5 5 7 5 6 5 4 5 3 4 5 6 7 6 7 7 4 4 5 2 1 5 5 4 5 3 2 2 3 3 5 6 5 4 5 7 4 0 2 4 2 4 2 6 3 2 3 4 5 8 7 6 6 6 6 6 6 7 6 6
3 0 3 2 2 3 3 6 7 6 6 4 3 4 8 8 6 6 5 4 8 8 4 6 11 10 8 5 5 4 6 5 7 5 4 5 4 5 6 6 7 7 5 4 4 4 6 1 1 3 3 2 2 2 4 5 4 3 4 4 4 4 6 6 2 1 4 5 3 5 3 6 1 2 2 2 2 5 5 3 3 3 2 1 3 5 7 8
3 2 3 3 2 1 3 7 7 4 8 7 4 6 9 9 8 8 6 4 7 9 6 6 8 10 12 9 6 4 5 4 4 4 5 6 5 4 5 4 6 7 5 5 4 3 4 1 1 3 4 3 4 5 7 7 5 4 3 1 0 3 6 5 2 2 6 5 2 3 8 7 3 4 4 4 3 5 6 5 6 6 6 5 4 2 2 4
2 1 4 3 2 2 3 6 5 4 8 8 5 6 7 8 8 7 9 8 4 5 6 6 6 8 10 11 9 6 3 2 1 1 2 5 5 3 3 2 3 6 6 4 3 3 4 1 1 4 4 3 4 5 7 7 6 5 4 4 1 3 4 4 2 3 6 5 3 7 10 6 4 4 4 5 5 7 9 9 7 7 6 6 6 5 2 1
3 3 3 1 2 5 4 5 5 4 6 7 6 6 6 7 7 5 7 9 6 5 3 4 5 6 8 11 11 6 3 2 2 4 3 2 2 2 2 1 2 5 5 3 2 3 3 1 1 5 4 3 3 5 5 5 7 6 6 8 6 5 5 4 3 4 3 5 4 8 7 1 5 4 5 6 7 10 10 8 7 7 7 6 7 5 2 2
9 3 3 1 2 6 4 4 7 5 4 6 7 7 6 6 7 5 4 6 7 7 4 4 5 5 6 9 8 4 5 4 5 6 5 4 4 4 4 4 3 2 2 1 2 1 3 4 1 4 3 4 3 4 5 5 7 4 4 5 5 2 7 7 6 7 4 5 5 4 2 3 4 2 6 8 9 10 8 6 6 6 7 7 7 6 5 2
Wind_Direction
320 318 315 314 314 313 311 310 309 308 308 307 306 307 306 307 305 305 304 303 307 305 308 312 308 307 306 308 312 314 318 315 315 304 249 259 267 231 201 193 156 167 200 219 241 284 300 276 260 249 264 330 207 234 247 204 181 126 135 181 227 234 230 220 189 116 309 311 312 311 323 91 2 327 39 58 77 92 71 45 63 51 59 100 119 134 143 147
318 315 313 311 310 309 309 308 307 306 306 304 305 306 306 308 306 307 306 305 308 304 305 305 303 306 306 311 313 317 321 316 308 282 257 260 265 208 201 196 157 163 186 209 229 224 223 259 270 248 127 270 236 225 245 235 180 150 158 200 229 221 240 251 196 315 295 289 295 301 318 32 18 305 24 92 137 105 82 55 66 78 77 94 115 132 142 147
315 314 311 309 308 308 307 306 306 305 305 305 304 304 306 306 307 307 306 307 306 305 303 300 302 305 310 311 314 323 319 318 299 266 265 250 232 207 194 191 181 197 225 235 243 224 215 256 322 351 138 243 260 225 225 260 255 190 176 224 247 226 252 270 238 244 254 266 289 303 328 1 330 305 23 128 157 119 119 132 102 104 115 120 126 135 143 151
315 312 309 307 306 305 304 304 303 303 301 301 302 304 304 304 307 307 306 308 307 306 303 302 305 305 310 312 318 327 317 323 282 258 255 210 222 206 195 193 194 216 236 239 241 233 234 269 323 340 218 248 263 225 210 233 251 211 175 211 240 226 252 265 244 245 258 268 267 265 346 353 311 314 70 157 150 154 182 168 144 145 144 137 140 144 150 158
314 310 308 305 302 301 301 300 300 301 298 297 300 300 304 305 306 307 306 307 308 309 306 303 304 304 308 315 322 325 332 39 268 280 256 205 208 201 198 196 198 216 227 228 235 237 245 255 338 353 238 240 244 228 231 222 210 246 228 227 240 231 247 260 250 247 254 271 278 290 14 320 307 334 341 263 190 224 215 179 153 152 150 145 147 150 156 156
315 309 308 302 298 298 298 298 296 298 298 299 300 300 305 305 304 304 303 305 306 307 308 304 305 308 311 316 316 301 1 108 272 288 247 201 185 193 196 199 203 212 216 218 225 208 213 202 142 194 227 232 215 204 236 225 177 237 262 250 249 238 240 255 250 245 239 257 269 269 218 201 15 335 314 7 253 233 182 144 143 144 143 141 144 148 149 139
315 310 307 301 298 297 298 297 294 296 299 299 299 300 302 304 305 305 305 305 304 307 310 310 310 310 318 325 286 229 127 264 273 260 222 199 178 188 192 198 201 204 208 206 197 179 159 136 181 208 221 242 219 211 239 235 174 206 257 258 251 239 238 249 244 242 244 241 245 231 264 253 108 300 318 41 287 157 112 115 124 127 130 130 130 125 110 85
316 311 307 301 297 298 298 295 294 296 299 300 300 299 298 298 300 301 302 301 301 307 308 310 311 308 327 345 200 251 234 255 267 219 204 201 182 188 192 192 197 200 199 200 192 164 136 196 228 222 221 236 214 227 260 308 216 208 240 252 252 244 239 248 243 235 246 247 247 237 249 248 209 177 86 103 125 112 111 115 120 123 125 123 117 108 95 81
318 312 305 298 296 298 297 293 294 298 301 302 302 301 303 303 303 301 298 297 297 299 301 307 309 309 326 326 287 309 257 249 257 189 192 200 193 192 193 192 195 195 195 206 195 155 160 206 223 205 227 250 226 249 258 261 257 220 229 248 251 251 247 253 254 244 257 262 244 239 250 260 234 148 68 228 128 112 111 115 122 126 126 120 112 112 113 116
320 313 305 298 297 297 294 293 295 300 303 303 305 304 306 308 304 302 299 300 299 295 301 307 305 313 314 294 150 257 272 249 185 182 185 196 196 192 194 196 192 190 195 203 192 187 197 206 213 209 265 274 236 257 236 196 243 254 253 262 247 246 245 240 256 268 291 279 227 222 240 256 254 119 86 271 134 118 113 116 124 125 126 122 119 127 132 134
323 316 310 304 300 297 293 293 296 301 302 303 306 305 308 309 305 306 303 299 297 294 298 306 310 320 309 300 146 223 255 218 188 173 179 193 193 195 192 192 190 192 197 196 204 209 215 231 240 321 279 263 292 296 262 216 274 288 276 279 268 268 265 239 259 276 293 284 232 207 243 263 327 119 159 186 151 131 123 125 130 125 127 126 126 136 135 133
329 322 316 310 301 294 289 291 296 301 303 305 306 308 316 318 316 317 308 300 298 291 275 290 308 351 328 307 212 231 204 179 192 164 173 182 186 201 189 186 194 199 201 197 233 232 233 244 243 237 241 239 327 316 285 279 307 291 288 294 290 338 320 274 273 263 240 267 231 135 309 292 309 178 164 159 154 142 129 131 133 127 126 125 130 131 120 132
336 328 321 313 304 293 286 291 298 301 305 307 307 313 322 324 322 319 311 307 301 286 242 244 240 256 345 249 240 246 239 267 219 177 177 158 147 189 187 192 203 211 214 212 239 251 249 251 235 219 230 177 263 275 300 308 314 294 315 344 309 358 317 262 233 260 264 225 159 98 309 274 281 182 164 156 155 142 130 138 137 131 131 130 135 123 118 148
342 336 328 320 314 301 294 296 298 301 305 306 308 314 323 324 319 314 309 302 292 268 211 147 154 164 147 255 267 274 286 291 219 192 183 162 157 192 198 207 215 223 227 227 246 260 261 267 263 224 237 170 225 295 326 328 338 311 328 356 0 350 285 266 204 236 269 223 133 122 245 256 257 168 166 158 152 144 137 148 146 143 142 138 139 133 145 170
350 344 337 329 325 316 306 301 300 303 305 305 310 318 324 322 317 314 308 294 260 213 210 210 208 190 352 276 280 292 294 272 199 198 186 171 186 209 217 217 220 229 232 235 248 260 266 275 286 158 288 298 33 2 335 332 338 351 347 326 339 242 272 295 272 198 225 246 132 147 232 265 227 166 165 156 155 150 143 154 156 151 146 143 145 143 153 161
358 351 344 336 329 323 316 310 308 308 306 307 316 325 323 316 317 314 303 290 223 188 180 228 214 189 330 280 292 302 263 196 192 197 188 184 200 213 226 228 233 238 234 237 249 267 277 280 250 170 291 324 48 54 7 359 338 348 65 270 291 265 289 308 289 215 205 223 159 175 217 274 211 168 171 165 162 152 142 157 162 152 147 147 150 149 152 151
3 358 349 341 333 327 323 318 314 308 305 312 321 323 313 304 301 291 297 285 157 182 182 235 278 200 261 276 299 294 232 195 197 195 194 203 214 220 227 234 242 240 240 249 259 278 298 311 231 225 9 4 79 82 37 354 311 319 0 289 262 242 266 286 287 262 199 190 193 197 209 234 225 183 180 167 158 152 148 161 163 152 148 152 154 154 155 154
5 3 354 343 337 333 328 323 316 310 311 319 322 315 299 288 282 264 174 139 128 146 223 272 314 243 262 272 279 272 210 199 205 203 206 209 214 222 223 227 230 215 292 303 277 282 315 328 25 58 351 356 54 90 108 237 215 251 281 302 288 263 249 249 269 275 175 179 194 191 210 237 273 196 175 171 166 163 161 162 159 152 149 153 156 156 160 160
3 3 359 346 336 334 330 325 320 315 318 322 318 308 295 283 277 161 141 142 130 124 261 234 191 170 270 253 249 275 255 209 202 203 208 206 207 219 224 237 236 129 97 350 300 291 186 327 23 85 293 286 231 157 183 222 216 231 232 184 237 280 274 263 276 267 150 153 189 179 191 251 316 16 169 180 168 154 152 147 141 144 149 154 157 158 165 167
1 1 0 351 337 333 331 327 324 321 325 326 325 319 304 349 30 31 159 188 207 221 242 210 188 234 283 281 284 302 284 225 203 200 204 202 197 201 215 231 218 123 149 169 252 289 129 163 263 221 225 229 231 209 205 235 233 231 194 144 231 285 303 305 317 320 120 114 198 165 121 90 305 253 170 152 121 129 140 137 142 157 165 165 161 162 168 172
358 358 359 356 344 331 330 328 323 326 329 325 331 340 263 177 82 323 276 231 233 227 241 228 199 230 259 269 281 298 310 235 210 204 203 200 181 162 219 208 168 234 240 178 212 320 98 181 242 229 220 219 230 226 216 231 239 291 63 39 320 329 298 293 308 341 50 100 313 227 122 171 245 222 157 142 140 165 160 150 165 177 177 169 159 162 168 170
356 356 356 356 349 335 328 325 324 328 326 319 320 282 239 240 249 306 311 273 259 218 226 241 220 239 252 257 266 271 296 249 227 227 200 187 166 169 229 189 159 229 265 135 173 329 61 228 243 237 222 217 245 250 209 208 76 354 9 35 321 295 299 300 309 347 29 92 265 276 124 232 271 299 146 152 159 178 171 165 175 179 173 166 160 160 163 164
352 352 352 353 350 339 324 323 328 327 327 321 288 228 287 303 303 312 315 292 286 230 211 232 224 243 250 255 261 245 233 232 222 237 195 169 164 175 177 186 183 226 270 154 187 207 226 240 244 238 200 174 243 240 116 50 35 327 328 43 281 267 64 310 313 338 358 43 191 324 23 310 299 353 120 158 170 176 180 181 179 177 171 170 169 164 165 168
348 348 349 349 348 342 325 324 328 328 335 320 283 288 326 330 325 319 315 230 291 271 216 217 208 229 238 242 247 212 205 214 202 222 191 164 150 160 172 184 175 235 244 199 185 195 244 254 265 259 191 175 207 224 135 73 7 299 252 213 243 263 197 238 283 324 344 342 27 69 18 330 352 23 90 154 162 172 180 188 192 190 176 167 167 168 172 171
345 345 345 344 346 343 330 324 322 345 340 307 287 324 343 344 342 313 281 37 297 284 245 215 196 228 238 227 215 207 196 205 205 196 180 171 162 153 186 181 159 228 238 222 197 219 257 257 263 278 210 177 180 211 180 131 80 313 262 220 216 206 222 270 320 8 29 351 323 76 47 298 336 10 275 347 135 185 191 189 193 191 168 160 166 170 174 166
343 341 341 341 341 340 336 319 310 339 329 290 299 339 344 339 341 289 150 31 312 271 261 190 173 216 231 205 180 187 158 221 214 181 173 182 179 159 169 198 174 216 217 215 214 227 258 243 199 182 172 143 151 197 205 142 115 303 250 205 183 150 129 53 32 48 78 278 288 74 110 260 322 329 273 254 155 187 213 218 201 180 170 174 172 170 168 160
341 338 337 336 337 340 336 285 311 325 311 303 333 342 338 338 337 332 87 28 314 259 207 215 219 182 203 195 160 147 187 242 208 174 177 184 183 158 178 218 201 207 198 85 347 267 257 238 165 141 107 99 108 207 228 146 118 228 252 196 163 118 112 118 90 79 200 237 322 15 100 168 300 284 264 221 142 182 212 219 212 190 181 173 170 173 171 167
337 336 334 330 333 335 319 289 308 313 310 334 341 339 338 340 330 66 76 46 277 272 156 213 247 165 196 206 156 169 215 212 131 218 191 181 180 148 190 222 185 191 198 102 277 272 243 205 183 156 115 114 173 221 211 132 124 241 248 211 187 160 146 134 101 80 20 44 336 323 41 108 278 279 297 4 45 274 225 200 185 188 187 174 173 179 175 168
333 333 331 324 325 326 318 299 284 287 340 347 350 342 338 343 342 76 79 178 266 306 167 179 183 183 233 179 169 211 232 121 155 248 180 174 181 135 185 220 181 190 226 153 213 260 246 212 192 148 128 182 219 225 178 138 199 248 218 134 24 55 93 90 91 85 43 59 254 283 332 94 271 291 317 6 24 314 272 194 163 178 182 175 173 171 163 155
328 329 327 321 319 319 320 298 270 270 352 351 349 343 342 358 41 73 73 250 266 280 227 147 204 169 162 158 203 233 231 212 192 150 114 171 187 130 179 217 141 165 284 23 192 247 274 246 186 137 164 192 198 212 189 165 190 199 78 49 21 14 15 42 66 79 62 18 253 258 270 106 287 292 285 305 320 284 263 70 136 164 163 166 167 158 152 156
324 323 320 314 310 302 299 290 265 256 346 341 343 349 11 31 60 100 209 245 278 285 329 6 263 174 150 171 203 228 225 243 142 129 161 181 173 192 296 336 42 62 2 351 309 292 322 309 212 235 200 161 132 209 293 306 136 105 78 60 42 351 4 18 3 41 81 263 257 257 309 95 120 276 276 275 294 294 224 150 150 149 141 141 145 141 150 164
321 318 313 306 299 280 257 255 261 288 314 328 344 14 68 45 33 176 242 296 313 270 335 283 262 257 191 192 206 211 202 225 174 157 185 177 160 190 204 204 180 54 347 282 296 331 338 256 259 303 272 133 108 329 322 349 31 79 90 71 75 4 10 17 335 16 188 247 256 274 352 83 212 247 268 299 314 316 309 137 133 134 128 118 121 129 141 149
321 316 309 300 289 270 259 262 275 292 307 324 352 42 82 81 232 223 239 285 245 244 323 290 301 309 259 207 231 215 184 213 205 172 186 172 156 202 229 213 165 122 199 218 243 351 334 307 321 340 305 129 115 128 283 312 19 116 148 115 109 103 64 316 277 321 257 264 276 295 351 12 298 260 259 317 348 354 20 76 97 108 113 111 111 113 115 115
321 318 310 299 284 268 263 266 271 276 301 336 22 62 88 134 241 240 234 258 265 299 330 297 289 301 300 309 264 226 187 222 212 168 182 154 134 208 252 249 173 130 134 173 199 156 104 315 299 198 276 270 137 170 181 163 135 184 168 129 137 148 140 196 218 186 227 267 292 316 39 162 212 246 260 351 33 41 43 59 79 84 85 93 89 82 88 93
323 318 311 297 279 266 258 256 260 253 251 34 60 83 129 204 241 250 231 247 277 311 316 300 267 238 308 310 271 230 179 201 310 130 175 157 167 202 206 222 203 139 115 149 216 186 132 243 258 252 222 175 180 207 163 113 61 265 131 93 153 182 151 159 179 174 176 186 303 304 228 209 195 240 312 58 71 65 62 60 66 70 66 70 67 60 67 76
325 321 314 293 273 264 254 251 247 213 163 84 71 129 194 213 227 229 232 247 300 324 323 320 319 140 236 298 295 295 185 173 234 287 260 211 188 216 217 211 196 160 145 156 206 183 118 254 276 314 341 219 212 206 157 119 134 284 57 100 234 175 128 121 189 189 95 101 276 262 227 300 328 335 356 52 75 74 96 104 97 89 78 70 61 46 45 46
327 325 315 281 269 257 247 250 214 174 143 91 109 200 218 220 233 245 283 312 318 323 339 334 323 145 145 308 319 326 334 235 217 204 258 297 287 296 298 273 226 176 165 154 194 186 139 260 288 340 359 294 256 165 123 132 131 114 148 204 232 66 88 107 127 359 48 124 269 297 168 310 24 261 339 43 72 58 60 112 120 116 109 101 96 81 65 49
321 321 297 276 272 248 232 225 174 151 112 84 156 228 229 222 252 267 298 312 315 320 333 302 263 224 129 116 294 307 329 325 311 190 216 245 253 285 312 307 323 133 140 114 107 188 116 60 292 305 334 301 331 72 17 333 80 125 172 170 90 87 2 43 117 170 107 184 276 325 338 110 140 242 332 45 84 88 60 66 103 113 119 120 120 119 112 98
314 328 291 292 327 242 204 182 154 130 80 120 191 245 237 251 271 273 282 289 290 294 288 249 231 261 125 148 206 245 248 246 229 201 211 227 252 226 221 279 293 86 94 98 118 190 98 111 274 295 316 332 359 47 34 335 340 14 56 37 54 132 161 159 145 160 146 169 228 321 2 318 234 238 151 103 111 111 101 83 82 94 107 116 122 124 123 117
331 354 254 345 6 215 176 154 130 106 102 173 193 224 249 271 276 273 272 274 272 254 258 244 206 262 262 174 194 217 234 245 223 185 174 228 265 217 213 265 300 352 61 75 90 109 58 92 225 293 332 26 24 31 61 10 319 347 19 1 21 81 102 125 68 86 122 134 166 129 21 272 250 230 167 163 143 125 124 114 102 104 107 111 121 122 120 111
9 15 246 351 11 144 153 129 116 141 145 211 207 218 252 271 272 279 280 273 267 243 233 234 216 212 212 212 247 215 193 258 237 148 127 173 152 116 297 288 285 292 30 48 38 72 73 103 174 298 345 41 236 250 49 340 242 189 186 215 165 122 109 110 7 319 102 128 159 149 154 266 258 195 190 192 163 146 137 129 125 122 120 121 124 122 116 108
43 3 265 345 11 141 145 101 241 150 127 211 210 225 242 257 262 276 282 275 268 243 229 231 233 228 209 211 239 199 116 241 254 155 140 162 149 147 295 345 81 112 102 63 334 209 119 102 96 338 261 229 251 233 93 6 301 117 131 151 92 107 114 122 181 257 37 92 133 115 117 264 265 228 203 202 171 144 125 124 125 121 125 130 122 110 101 96
84 289 282 342 4 70 129 53 286 327 279 222 234 243 235 254 265 274 285 283 274 245 231 256 270 67 31 357 20 37 34 43 341 20 124 121 186 186 169 77 78 77 81 90 292 304 75 81 65 328 294 303 309 332 61 33 41 52 6 18 36 0 128 138 171 175 129 139 142 103 116 257 280 307 176 152 118 99 93 109 117 117 121 123 116 110 106 105
298 275 282 349 5 23 121 114 227 239 265 265 286 266 254 258 252 256 271 287 292 263 182 33 5 57 36 6 44 55 34 81 28 10 80 121 202 197 160 122 104 80 74 170 174 114 59 97 92 55 4 349 345 352 5 6 28 45 316 350 23 13 24 48 94 85 90 186 149 122 174 244 285 352 84 95 85 86 91 105 119 124 127 126 120 115 116 116
326 305 270 340 4 26 127 181 165 184 282 302 294 275 276 274 255 254 255 297 344 5 67 24 10 45 41 20 48 42 28 76 73 6 17 45 22 22 113 102 100 88 90 143 134 110 112 131 111 108 121 143 283 289 304 329 345 346 325 346 14 33 36 44 60 63 90 199 111 116 184 240 315 10 84 106 101 99 103 109 115 126 137 140 137 132 130 127
359 6 324 326 0 26 331 251 70 44 327 327 303 284 289 295 291 310 4 34 17 38 51 18 17 49 36 27 54 33 15 35 69 43 19 8 4 353 12 61 83 88 89 92 88 87 91 83 102 126 148 173 186 217 241 297 7 335 332 349 6 21 44 82 85 71 174 146 70 181 182 137 23 11 88 118 122 128 141 144 139 146 153 153 149 147 144 139
44 20 7 334 325 356 347 351 22 7 326 356 6 328 348 342 325 354 19 25 15 35 59 28 24 43 23 27 70 32 356 24 51 41 5 353 350 335 357 41 62 66 78 74 61 85 86 46 87 119 138 179 184 214 306 41 59 357 346 358 9 21 47 72 68 2 160 92 3 262 161 116 154 200 135 150 162 154 157 161 158 161 164 163 157 147 137 133
42 54 0 352 325 355 348 330 331 336 350 23 46 14 13 18 25 16 354 13 23 21 53 41 29 38 31 35 87 43 354 29 43 16 348 352 352 348 355 12 21 29 53 38 18 86 102 112 206 117 101 122 119 49 33 57 69 52 36 15 6 40 70 88 79 179 131 117 211 233 114 103 196 306 58 109 156 144 142 134 119 112 108 121 137 144 148 150
30 24 334 357 27 253 263 294 303 339 17 19 27 31 28 30 37 29 4 15 24 14 39 65 40 40 40 42 77 63 15 38 33 353 357 359 346 358 11 359 352 5 38 41 12 68 100 150 210 106 78 32 34 48 52 53 47 46 44 3 251 99 103 115 115 71 92 95 157 139 91 72 9 347 1 6 41 91 95 73 63 54 46 51 54 60 155 157
31 343 330 358 9 299 294 323 330 29 31 18 19 28 33 33 33 37 33 37 40 7 27 67 59 46 48 49 63 71 55 80 142 265 352 357 346 2 22 9 341 348 13 37 0 18 77 164 226 86 69 341 355 53 59 59 65 47 6 341 33 93 77 72 41 36 73 77 54 76 78 53 354 353 354 354 27 60 61 54 54 50 47 61 57 31 9 134
347 262 323 31 12 348 357 1 1 33 29 13 10 13 31 37 28 39 42 37 53 49 37 96 80 48 43 44 46 41 4 350 292 266 250 256 290 308 314 317 0 348 351 22 9 16 76 113 348 67 76 292 313 56 48 50 64 47 9 351 358 44 68 59 29 30 104 132 82 62 71 341 299 342 28 36 48 60 56 45 42 38 30 48 56 26 333 189
357 317 345 87 78 6 2 16 20 36 29 358 355 7 32 40 28 50 59 20 28 48 60 101 94 68 49 37 24 340 300 290 283 285 270 244 249 254 253 266 285 297 296 35 44 38 106 109 87 90 103 273 289 72 64 48 42 13 320 313 314 63 87 67 27 14 39 117 110 92 141 241 280 7 68 61 54 59 57 40 34 34 32 46 55 34 10 36